sat.trackr.live / text

‹ back to catalog

STARLINK-34043

NORAD 63823 · 2025-092V

PAYLOAD ACTIVE UNKNOWN

§ Identity

Operator
Country
US
Launch date
2025-05-04
Launch site
AFETR
Launch vehicle
Mass (kg)
RCS (m²)

Purposes: comms

External: N2YO · Heavens-Above · Gunter

§ Orbital elements

Epoch: 2026-05-25T03:26:10.008960Z

Period
94.27 min
Inclination
42.9998°
Eccentricity
0.0001157
Mean motion
15.27596370 rev/d
Perigee alt
482.2 km
Apogee alt
483.8 km
Semi-major
6,861.1 km
B*
4.9300e-4
RAAN
96.7245°
Arg perigee
259.2474°
Mean anomaly
100.8247°
Rev number
6,035

§ Raw data

STARLINK-340431 63823U 25092V   26145.14317140  .00013336  00000+0  49300-3 0  99932 63823  42.9998  96.7245 0001157 259.2474 100.8247 15.27596370 60356

JSON: /api/v1/satellites/63823 · /tle

For live sub-satellite position, see the globe view (requires WebGL).

§ Visibility from observer

Set your observer location to see the next 7 days of passes ≥ 10°. The values pass through the URL so the page stays shareable.

No JS? Fill the form by hand. The geolocation button needs JavaScript.